Simultaneous Nadir Overpasses (SNOs) Predictions

Prediction of SNOs between LANDSAT-8 and NPP Satellite Orbit:

Table of predicted SNOs for the next 14.0 days since TLE Epoch: 3/9/2024
Index Date (LANDSAT-8) Time (LANDSAT-8) Lat,Lon (LANDSAT-8) SZA (LANDSAT-8 ) Date (NPP) Time (NPP) Lat,Lon (NPP) SZA (NPP ) Distance(km) Time Diff (sec)
1 03/11/2024 14:41:46 -70.16, 135.97 106.48 03/11/2024 14:41:18 -70.19, 135.98 106.44 3.36 28
2 03/11/2024 15:31:13 70.06, -56.52 73.42 03/11/2024 15:32:02 70.06, -56.51 73.41 0.45 49
3 03/14/2024 06:08:45 70.22, 84.31 72.54 03/14/2024 06:07:34 70.25, 84.32 72.58 2.96 71
4 03/14/2024 06:58:15 -70.11,-108.22 107.59 03/14/2024 06:58:15 -70.11,-108.15 107.58 2.97 0
5 03/14/2024 07:47:45 69.84, 59.05 72.15 03/14/2024 07:48:56 69.83, 59.59 72.11 20.98 71
6 03/16/2024 22:25:13 70.19,-159.86 71.45 03/16/2024 22:24:31 70.18,-159.82 71.44 1.74 42
7 03/16/2024 23:14:42 -70.08, 7.62 108.68 03/16/2024 23:15:12 -70.10, 7.63 108.67 2.04 30
8 03/19/2024 13:52:04 -70.73, 149.18 109.10 03/19/2024 13:50:54 -70.82, 147.61 108.94 58.28 70
9 03/19/2024 14:41:39 70.19, -43.98 70.37 03/19/2024 14:41:28 70.18, -44.06 70.37 2.92 11
10 03/19/2024 15:31:10 -70.02, 123.42 109.80 03/19/2024 15:32:09 -70.04, 123.48 109.80 2.81 59
11 03/22/2024 06:08:40 -70.21, -95.71 110.66 03/22/2024 06:07:40 -70.19, -95.63 110.67 3.48 60
12 03/22/2024 06:58:07 70.09, 71.77 69.22 03/22/2024 06:58:25 70.13, 71.78 69.25 3.56 18



Historial Predications of SNOs between LANDSAT-8 and NPP
